Location: Newark
(50.8547°N, 2.7256°E)
Time: 00:33:44
(UTC+00:00)

Envisat - Pass Details

Date: 29 January 2020
Orbit: 764 x 766 km, 98.1° (Epoch: 24 February)

Event Time Altitude Azimuth Distance (km) Brightness Sun altitude
Rises 05:21:42 0° 25° (NNE) 3,245 6.5 -20.2°
Reaches altitude 10° 05:24:39 10° 43° (NE) 2,313 6.0 -19.8°
Maximum altitude 05:28:20 20° 89° (E) 1,730 5.8 -19.2°
Drops below altitude 10° 05:31:58 10° 136° (SE) 2,299 6.2 -18.6°
Sets 05:34:53 0° 153° (SSE) 3,219 6.7 -18.2°
